FW8715 Weather Reports


time (UTC)temp
C
wind
direction
speed
KPH
gust
KPH
rain 1hr
cm
rain 24hr
cm
rain mn
cm
humidity
%
barometer
mb
20260505052606 11 174 0.0 0.0 0.00 0.86 1.04 99 1011.1
20260505035606 11 192 1.6 1.6 0.00 0.86 1.12 98 1011.5
20260505032604 11 102 0.0 0.0 0.03 0.86 1.32 99 1011.8
20260505025604 11 132 0.0 0.0 0.05 0.86 1.47 99 1011.8
20260505022606 11 66 0.0 0.0 0.13 0.84 1.47 99 1012.1
20260505015604 11 82 0.0 0.0 0.28 0.81 1.45 99 1012.5
20260505012606 11 72 0.0 0.0 0.38 0.74 1.45 99 1012.8
20260505005604 11 66 0.0 0.0 0.23 0.53 1.27 98 1013.2
20260505002606 11 132 0.0 0.0 0.20 0.38 1.19 98 1013.5
20260504235604 11 150 0.0 0.0 0.30 0.33 1.24 97 1013.5
20260504232605 11 186 0.0 0.0 0.18 0.18 1.09 95 1013.8
20260504225605 11 178 0.0 0.0 0.05 0.05 0.97 93 1013.8
20260504222604 12 66 0.0 0.0 0.00 0.00 0.91 91 1013.8
20260504215605 12 66 0.0 0.0 0.00 0.91 0.91 91 1013.8
20260504212606 12 72 0.0 0.0 0.00 0.91 0.91 91 1013.8
20260504205604 12 71 0.0 0.0 0.00 0.91 0.91 90 1013.8
20260504202606 12 126 0.0 0.0 0.00 0.91 0.91 87 1013.8
20260504195604 12 188 0.0 0.0 0.00 0.91 0.91 86 1013.5
20260504192604 12 72 0.0 0.0 0.00 0.91 0.91 85 1013.8
20260504185606 13 186 1.6 1.6 0.00 0.91 0.91 85 1013.8
20260504182604 13 244 0.0 0.0 0.00 0.91 0.91 86 1013.8
20260504175604 13 167 1.6 1.6 0.00 0.91 0.91 83 1013.8
20260504172606 14 179 4.8 4.8 0.00 0.91 0.91 82 1014.2